SCP
0 0 0 0 0 -0 -0 0 0 0 0 0 0 0 0 0 0 0 0 0 -0 -0 -0 -0 -0 0 -0 -0 0 -0 0 0 0
-0 -0 -0 0 0 0 0 -0 0 0 0 0 0 0 0 0 0 0 0 0 0 0 0 0 -0 -0 0 0 0 0 0 0 0
-0 0 -0 -0 0 0 0 0 0 0 0 0 0 0 0 0 0 0 0 0 0 0 0 0 0 0 -0 0 0 0 0 0 0
-0 0 -0 0 0 0 0 0 0 0 0 0 0 0 0 0 0 0 0 0 0 0 0 0 0 0 0 0 0 0 0 0 0
-0 -0 0 0 0 0 0 0 0 0 0 0 0 0 0 0 0 0 0 0 0 0 0 0 0 0 0 0 0 0 0 0 0
-0 0 0 0 0 0 0 0 0 0 0 0 0 0 0 0 0 0 0 0 0 0 0 0 0 0 0 0 0 0 0 0 0
-0 0 0 0 0 0 0 0 0 1 0 0 0 0 0 0 0 0 0 0 0 0 0 0 0 0 0 0 0 0 0 0 0
-0 0 -0 0 0 0 1 1 0 0 0 0 0 0 0 0 0 0 0 0 0 0 0 0 0 0 0 0 0 0 0 0 0
-0 0 -0 -0 0 0 1 1 0 0 0 0 0 0 0 0 0 0 0 0 0 0 0 0 0 0 0 0 0 0 0 0 0
0 0 0 0 0 0 0 0 0 0 0 0 0 0 1 1 1 0 0 0 0 0 0 0 0 0 0 0 0 0 0 0 0
0 0 -0 -0 0 0 0 0 0 0 0 0 -0 0 1 1 1 1 1 0 0 0 0 0 0 0 0 0 0 0 0 0 0
0 0 -0 -0 0 0 1 0 0 0 0 0 0 0 2 2 1 1 1 0 0 0 1 0 0 0 0 0 0 0 0 0 0
0 0 0 0 0 0 0 1 0 1 1 0 0 1 2 2 1 1 1 1 1 0 0 0 0 0 0 0 0 0 0 0 0
0 0 0 0 0 0 0 0 0 0 0 0 0 0 2 1 1 1 0 0 0 0 0 0 0 0 0 0 0 0 0 0 0
0 0 0 0 0 0 0 0 0 0 0 0 0 0 0 0 0 0 0 0 0 0 0 0 0 0 0 0 0 0 0 0 0
0 0 0 0 0 0 0 0 0 0 0 0 0 0 0 0 0 0 0 0 0 0 0 0 0 0 0 0 0 0 0 0 0
0 0 0 0 0 0 0 0 0 0 0 0 0 0 0 0 0 0 0 0 0 0 0 0 0 0 0 0 0 0 0 0 0
0 0 0 0 0 0 0 0 0 0 0 0 0 0 0 0 0 0 0 0 0 0 0 0 0 0 0 0 0 0 0 0 0
-0 0 0 0 0 0 0 0 0 0 0 0 0 0 0 0 0 0 0 0 0 0 0 0 0 0 0 0 0 0 0 0 0
-0 0 0 0 0 0 0 0 0 0 0 0 0 0 0 0 0 0 0 0 0 0 0 0 0 0 0 0 0 0 0 0 0
Wind_Speed_500mb
56 54 57 68 66 43 60 56 57 54 46 36 38 42 51 41 42 38 28 28 20 20 15 23 26 30 18 17 15 13 17 19 10
59 58 66 70 65 53 61 54 64 61 49 47 34 42 42 46 46 42 37 32 25 23 18 18 38 30 20 20 25 21 19 13 16
55 60 64 70 57 63 63 76 59 63 60 53 40 41 46 52 47 46 47 39 37 26 19 18 30 19 15 23 27 27 22 20 20
53 58 60 65 67 81 74 91 64 71 65 62 52 41 49 46 50 53 45 47 39 33 32 25 16 31 23 21 17 17 21 19 23
41 48 72 53 77 81 87 84 58 76 70 67 55 41 43 45 41 45 52 53 46 46 41 34 29 32 34 33 30 30 31 30 20
11 18 19 49 56 78 76 77 58 78 84 63 55 45 46 45 40 40 44 50 48 43 39 43 41 40 40 37 37 39 37 28 15
38 11 15 17 41 60 75 90 87 74 77 63 53 45 50 51 48 43 41 39 38 33 34 32 33 37 37 29 28 26 28 27 22
86 13 14 14 29 53 64 76 73 82 78 66 59 43 56 57 52 47 44 43 40 36 37 36 37 33 32 28 27 27 26 27 23
83 14 8 16 15 31 49 59 77 79 78 65 64 58 51 53 52 50 48 45 47 42 36 35 32 32 30 29 29 30 27 29 27
20 21 23 11 8 33 33 39 60 73 62 50 61 66 58 51 54 53 46 43 41 40 36 34 32 30 31 31 35 34 30 29 24
19 14 35 30 17 16 36 31 23 51 61 48 70 73 63 55 52 50 43 40 37 30 29 31 30 29 32 34 41 34 30 28 24
10 16 30 35 12 15 17 46 38 28 60 73 69 75 72 66 57 50 41 34 32 35 36 36 37 38 36 40 42 35 28 24 22
15 13 18 25 18 17 20 25 42 42 54 66 62 66 74 66 53 44 43 43 38 33 31 33 35 33 26 31 37 25 24 26 22
19 22 12 20 12 12 19 28 39 51 24 9 24 26 67 51 43 41 39 32 28 27 20 19 19 23 19 14 15 15 19 25 26
17 22 13 16 16 7 17 20 29 37 36 17 18 14 10 17 28 25 23 16 14 16 18 17 11 6 5 12 10 15 21 24 23
18 17 12 7 16 14 15 19 14 24 27 27 9 18 25 8 3 14 6 1 8 12 10 11 12 12 12 18 17 9 4 7 9
16 23 19 15 11 19 18 20 30 31 37 32 36 23 31 14 3 16 16 16 21 18 22 25 26 23 23 16 11 9 7 5 6
8 14 21 17 14 23 33 28 28 25 25 23 20 34 39 34 26 25 26 26 24 21 21 17 15 13 9 9 7 8 5 5 6
1 10 14 16 15 24 31 30 31 24 24 25 29 34 32 31 30 29 25 20 22 20 15 13 13 12 11 8 5 5 5 8 8
7 15 15 16 23 29 33 32 25 21 28 28 29 34 33 28 27 25 23 22 19 18 18 14 13 14 14 15 12 11 11 12 11
Wind_Direction_500mb
188 196 194 190 192 213 208 205 208 207 205 198 198 199 196 195 196 192 192 163 160 175 209 217 203 195 200 188 188 233 245 248 221
189 196 198 201 216 221 209 201 202 208 211 208 204 205 202 198 201 195 173 176 187 204 199 210 201 190 199 196 202 207 221 222 212
192 206 207 212 208 207 212 200 213 204 220 216 210 211 204 202 210 201 193 189 194 206 198 172 179 192 193 202 211 222 238 235 233
205 210 220 212 202 202 206 195 209 203 208 213 211 212 212 203 207 209 202 206 201 204 218 214 192 188 206 212 229 244 246 248 255
233 217 222 221 201 203 201 203 199 206 211 208 211 211 211 205 208 212 211 214 211 208 218 226 223 219 227 232 222 230 244 259 256
239 229 212 224 198 197 202 202 189 194 208 207 203 203 203 205 209 208 205 215 222 219 220 226 233 235 239 252 249 247 249 253 245
309 247 249 228 199 206 212 205 206 197 201 208 205 196 201 211 216 219 213 211 215 221 231 231 232 238 244 247 241 240 241 242 255
308 296 296 226 197 181 191 201 202 196 197 202 203 199 202 211 217 222 218 215 226 227 227 241 244 244 246 247 251 249 248 243 242
290 300 348 225 183 164 173 191 198 191 187 202 202 208 208 209 214 217 218 217 218 227 232 235 241 245 246 253 249 254 254 256 251
228 304 299 350 277 221 180 185 201 199 202 210 205 216 216 209 212 215 219 217 221 226 231 236 241 247 249 244 250 250 252 252 251
269 277 284 281 283 225 219 193 192 207 212 222 233 216 212 212 212 216 216 215 215 219 226 234 240 253 253 252 255 256 251 250 250
223 260 287 291 289 277 240 238 235 206 225 214 221 208 205 209 210 209 209 209 208 212 223 233 241 244 248 252 259 256 251 245 247
265 282 292 289 269 242 233 236 230 231 227 226 224 216 207 205 207 205 203 206 215 218 222 243 252 261 269 261 250 251 249 237 251
305 312 303 277 249 259 224 226 225 230 166 179 230 229 191 181 183 192 199 208 230 241 238 243 247 258 268 251 229 226 247 252 240
272 285 289 280 258 197 204 231 240 248 238 210 285 235 83 124 167 180 191 201 221 230 242 246 230 243 270 249 257 247 259 258 253
235 230 239 192 223 214 191 193 201 226 190 169 176 106 168 267 96 205 194 195 220 195 157 142 123 117 119 162 160 150 137 114 129
233 200 191 191 153 194 180 178 195 202 190 190 172 161 153 134 157 243 191 188 167 136 133 131 116 110 122 127 131 125 136 135 115
238 202 193 196 189 146 126 152 167 189 194 194 190 184 181 188 182 176 155 147 144 143 137 134 135 125 127 121 130 138 160 141 114
96 201 188 192 189 169 162 153 144 144 146 158 173 165 172 156 153 150 147 148 144 134 131 138 141 145 155 160 176 155 121 93 82
131 118 142 163 150 147 151 148 156 157 140 138 146 152 150 145 145 143 136 130 128 137 140 143 142 147 145 141 139 128 118 96 81
Wind_Speed_850mb
56 54 57 68 66 43 60 56 57 54 46 36 38 42 51 41 42 38 28 28 20 20 15 23 26 30 18 17 15 13 17 19 10
59 58 66 70 65 53 61 54 64 61 49 47 34 42 42 46 46 42 37 32 25 23 18 18 38 30 20 20 25 21 19 13 16
55 60 64 70 57 63 63 76 59 63 60 53 40 41 46 52 47 46 47 39 37 26 19 18 30 19 15 23 27 27 22 20 20
53 58 60 65 67 81 74 91 64 71 65 62 52 41 49 46 50 53 45 47 39 33 32 25 16 31 23 21 17 17 21 19 23
41 48 72 53 77 81 87 84 58 76 70 67 55 41 43 45 41 45 52 53 46 46 41 34 29 32 34 33 30 30 31 30 20
11 18 19 49 56 78 76 77 58 78 84 63 55 45 46 45 40 40 44 50 48 43 39 43 41 40 40 37 37 39 37 28 15
38 11 15 17 41 60 75 90 87 74 77 63 53 45 50 51 48 43 41 39 38 33 34 32 33 37 37 29 28 26 28 27 22
86 13 14 14 29 53 64 76 73 82 78 66 59 43 56 57 52 47 44 43 40 36 37 36 37 33 32 28 27 27 26 27 23
83 14 8 16 15 31 49 59 77 79 78 65 64 58 51 53 52 50 48 45 47 42 36 35 32 32 30 29 29 30 27 29 27
20 21 23 11 8 33 33 39 60 73 62 50 61 66 58 51 54 53 46 43 41 40 36 34 32 30 31 31 35 34 30 29 24
19 14 35 30 17 16 36 31 23 51 61 48 70 73 63 55 52 50 43 40 37 30 29 31 30 29 32 34 41 34 30 28 24
10 16 30 35 12 15 17 46 38 28 60 73 69 75 72 66 57 50 41 34 32 35 36 36 37 38 36 40 42 35 28 24 22
15 13 18 25 18 17 20 25 42 42 54 66 62 66 74 66 53 44 43 43 38 33 31 33 35 33 26 31 37 25 24 26 22
19 22 12 20 12 12 19 28 39 51 24 9 24 26 67 51 43 41 39 32 28 27 20 19 19 23 19 14 15 15 19 25 26
17 22 13 16 16 7 17 20 29 37 36 17 18 14 10 17 28 25 23 16 14 16 18 17 11 6 5 12 10 15 21 24 23
18 17 12 7 16 14 15 19 14 24 27 27 9 18 25 8 3 14 6 1 8 12 10 11 12 12 12 18 17 9 4 7 9
16 23 19 15 11 19 18 20 30 31 37 32 36 23 31 14 3 16 16 16 21 18 22 25 26 23 23 16 11 9 7 5 6
8 14 21 17 14 23 33 28 28 25 25 23 20 34 39 34 26 25 26 26 24 21 21 17 15 13 9 9 7 8 5 5 6
1 10 14 16 15 24 31 30 31 24 24 25 29 34 32 31 30 29 25 20 22 20 15 13 13 12 11 8 5 5 5 8 8
7 15 15 16 23 29 33 32 25 21 28 28 29 34 33 28 27 25 23 22 19 18 18 14 13 14 14 15 12 11 11 12 11
Wind_Direction_850mb
188 196 194 190 192 213 208 205 208 207 205 198 198 199 196 195 196 192 192 163 160 175 209 217 203 195 200 188 188 233 245 248 221
189 196 198 201 216 221 209 201 202 208 211 208 204 205 202 198 201 195 173 176 187 204 199 210 201 190 199 196 202 207 221 222 212
192 206 207 212 208 207 212 200 213 204 220 216 210 211 204 202 210 201 193 189 194 206 198 172 179 192 193 202 211 222 238 235 233
205 210 220 212 202 202 206 195 209 203 208 213 211 212 212 203 207 209 202 206 201 204 218 214 192 188 206 212 229 244 246 248 255
233 217 222 221 201 203 201 203 199 206 211 208 211 211 211 205 208 212 211 214 211 208 218 226 223 219 227 232 222 230 244 259 256
239 229 212 224 198 197 202 202 189 194 208 207 203 203 203 205 209 208 205 215 222 219 220 226 233 235 239 252 249 247 249 253 245
309 247 249 228 199 206 212 205 206 197 201 208 205 196 201 211 216 219 213 211 215 221 231 231 232 238 244 247 241 240 241 242 255
308 296 296 226 197 181 191 201 202 196 197 202 203 199 202 211 217 222 218 215 226 227 227 241 244 244 246 247 251 249 248 243 242
290 300 348 225 183 164 173 191 198 191 187 202 202 208 208 209 214 217 218 217 218 227 232 235 241 245 246 253 249 254 254 256 251
228 304 299 350 277 221 180 185 201 199 202 210 205 216 216 209 212 215 219 217 221 226 231 236 241 247 249 244 250 250 252 252 251
269 277 284 281 283 225 219 193 192 207 212 222 233 216 212 212 212 216 216 215 215 219 226 234 240 253 253 252 255 256 251 250 250
223 260 287 291 289 277 240 238 235 206 225 214 221 208 205 209 210 209 209 209 208 212 223 233 241 244 248 252 259 256 251 245 247
265 282 292 289 269 242 233 236 230 231 227 226 224 216 207 205 207 205 203 206 215 218 222 243 252 261 269 261 250 251 249 237 251
305 312 303 277 249 259 224 226 225 230 166 179 230 229 191 181 183 192 199 208 230 241 238 243 247 258 268 251 229 226 247 252 240
272 285 289 280 258 197 204 231 240 248 238 210 285 235 83 124 167 180 191 201 221 230 242 246 230 243 270 249 257 247 259 258 253
235 230 239 192 223 214 191 193 201 226 190 169 176 106 168 267 96 205 194 195 220 195 157 142 123 117 119 162 160 150 137 114 129
233 200 191 191 153 194 180 178 195 202 190 190 172 161 153 134 157 243 191 188 167 136 133 131 116 110 122 127 131 125 136 135 115
238 202 193 196 189 146 126 152 167 189 194 194 190 184 181 188 182 176 155 147 144 143 137 134 135 125 127 121 130 138 160 141 114
96 201 188 192 189 169 162 153 144 144 146 158 173 165 172 156 153 150 147 148 144 134 131 138 141 145 155 160 176 155 121 93 82
131 118 142 163 150 147 151 148 156 157 140 138 146 152 150 145 145 143 136 130 128 137 140 143 142 147 145 141 139 128 118 96 81